Wind_Speed
19 20 22 21 19 17 15 14 12 11 10 8 7 7 6 7 7 8 9 10 11 12 13 14 16 17 19 20 20 21 21 21 21 20 19 17 14 12 11 10 10 9 9 9 10 10 10 11 11 10 9 9 8 8 8 7 7 6 6 5 5 5 4 4 4 4 3 3 3 3 3 3 3 2 2 2 2 2 2 2 2 2 2 3 3
19 20 21 22 20 17 15 15 13 12 11 10 8 7 7 6 7 8 9 10 11 12 13 14 15 17 19 20 20 21 21 21 21 20 19 17 14 12 11 10 10 10 9 9 9 10 10 11 11 10 10 9 9 8 8 7 7 6 6 5 5 5 4 4 4 3 3 3 3 3 3 3 3 3 3 3 3 3 2 2 2 2 3 3 4
19 20 21 22 21 18 16 15 14 13 12 11 9 8 7 6 7 8 9 9 10 11 13 14 15 17 18 19 20 21 21 21 21 21 20 17 13 11 11 11 10 10 10 9 8 8 10 11 11 10 10 10 9 9 8 8 7 6 5 5 4 4 4 4 4 3 3 4 4 4 4 4 4 4 3 4 4 3 3 3 3 3 3 4 4
19 20 21 22 22 19 17 16 15 14 12 11 10 8 8 7 7 7 9 9 10 11 12 14 15 17 18 19 20 20 21 21 21 21 20 17 13 11 11 10 10 10 10 9 9 8 9 10 10 10 10 10 9 9 9 8 8 7 5 5 4 4 4 4 4 4 4 4 5 5 5 5 5 5 5 5 5 4 4 4 4 4 4 5 5
20 21 21 22 22 20 17 16 16 14 13 11 9 8 8 7 7 7 8 9 10 11 12 14 16 17 18 19 19 20 21 21 20 20 19 17 13 11 10 10 10 10 10 10 10 9 8 8 9 10 9 9 9 9 9 9 8 7 6 5 4 4 4 4 4 4 4 5 5 6 6 6 7 6 6 6 6 6 5 5 5 5 5 5 5
21 21 21 21 22 21 18 17 16 14 13 11 9 8 7 7 7 7 8 9 10 11 13 14 16 17 18 18 19 20 20 20 19 19 18 16 13 11 10 10 10 10 10 11 11 10 9 7 7 8 9 9 8 8 8 9 9 8 7 6 5 5 4 4 4 4 5 5 5 6 7 7 8 8 8 7 7 7 7 7 7 6 6 6 6
22 22 21 21 22 21 18 17 16 14 13 10 9 8 8 7 7 8 9 10 11 12 13 15 16 17 17 17 19 19 19 19 18 18 17 16 13 12 11 10 10 10 10 11 11 11 10 8 7 7 7 7 7 7 8 8 8 8 8 7 6 6 5 5 5 5 5 6 6 6 7 7 8 8 8 9 9 9 9 8 8 8 7 7 7
23 22 21 21 23 22 18 17 16 14 13 10 9 8 8 8 8 8 9 10 11 13 14 15 16 16 17 17 18 18 18 17 17 17 16 15 13 12 11 11 10 10 10 10 10 11 10 9 8 7 6 6 7 7 7 7 7 7 7 7 7 6 6 6 6 6 6 7 7 7 7 8 8 8 9 9 9 9 9 9 9 9 8 8 8
23 22 22 22 23 22 19 17 16 14 13 10 9 8 8 8 8 9 10 11 12 13 14 14 15 16 16 16 17 17 17 17 16 16 16 15 14 12 12 12 11 10 10 10 10 10 10 10 9 8 7 7 7 7 7 7 7 6 7 7 7 7 7 7 7 7 6 7 7 8 8 8 8 8 8 8 9 9 9 10 10 9 9 9 9
22 22 23 22 23 22 19 18 16 14 13 11 9 9 8 8 9 9 10 11 12 13 14 14 15 15 16 16 16 16 16 16 15 15 15 15 14 13 12 12 12 11 11 11 10 10 10 10 9 8 8 8 7 8 7 7 7 7 7 7 7 6 7 7 7 7 7 8 8 8 8 8 7 7 7 8 8 9 9 9 10 10 10 10 10
22 23 24 23 24 22 20 18 16 15 13 11 10 9 8 9 9 10 10 11 12 13 13 14 14 15 15 16 16 16 16 16 15 15 15 14 14 13 13 13 12 11 11 11 11 11 10 10 9 9 8 8 8 8 8 8 8 8 8 7 6 6 6 7 7 8 8 9 9 9 8 8 7 7 7 7 7 8 8 9 9 10 10 10 10
23 24 25 25 24 22 20 18 17 15 14 12 10 9 8 9 9 10 10 11 12 13 13 14 14 14 15 15 15 15 16 15 15 14 14 14 14 14 14 14 13 12 11 11 11 11 10 10 10 9 8 7 7 8 8 9 9 9 9 8 7 6 6 6 7 8 8 9 10 10 9 8 8 8 7 7 7 8 8 8 9 9 9 9 10
25 26 26 25 24 22 20 19 17 15 14 12 10 9 9 9 9 10 11 11 12 13 13 13 14 14 15 15 14 15 15 15 15 14 14 14 14 14 14 15 14 13 12 12 11 11 10 11 11 10 10 8 7 7 8 8 9 10 10 10 9 7 7 7 7 7 8 9 10 10 10 9 9 9 9 8 8 8 8 8 8 8 8 9 9
27 28 27 25 24 22 20 19 18 16 14 11 10 9 9 9 9 10 11 12 12 12 13 13 13 14 14 14 14 15 15 15 15 15 14 14 14 15 14 15 15 14 13 13 12 11 11 11 11 11 11 10 9 9 8 8 9 10 11 11 10 9 8 8 7 7 8 9 9 10 10 10 10 10 10 10 9 9 8 8 8 8 8 8 8
29 29 28 25 24 21 20 19 18 16 13 11 10 10 9 9 9 10 11 12 12 12 12 12 13 13 13 13 13 14 15 15 15 15 14 14 14 15 15 15 15 15 14 13 13 12 11 11 11 12 12 12 11 11 10 10 10 10 10 11 11 10 9 9 8 8 8 8 9 10 10 10 11 11 11 11 10 10 9 9 8 8 8 8 8
30 29 27 25 23 21 20 19 18 15 13 12 11 10 9 9 10 11 11 12 11 11 12 12 13 13 13 12 13 14 15 15 15 15 15 15 14 15 15 15 15 15 15 14 13 12 12 11 11 11 12 12 12 12 12 12 11 11 11 11 11 11 11 10 10 9 9 8 9 10 10 11 11 11 11 11 11 11 10 9 9 8 8 8 8
30 28 27 25 22 21 20 19 17 15 13 12 11 10 10 10 10 11 11 11 11 11 11 12 12 13 12 12 12 13 14 14 15 15 15 15 15 15 15 16 16 16 15 14 13 13 13 12 12 11 11 12 12 12 12 12 12 12 12 12 12 12 12 12 11 11 10 10 9 10 10 10 11 11 12 12 12 11 10 10 9 9 9 8 8
28 27 25 23 22 21 20 19 17 15 14 12 11 10 10 10 10 11 11 10 10 10 11 11 12 12 12 12 12 13 13 14 15 14 14 14 14 15 15 15 16 16 15 14 13 12 13 13 12 12 11 12 12 12 13 13 13 13 13 12 13 13 13 13 12 12 12 11 11 10 10 11 11 11 12 12 12 12 11 10 10 9 9 9 9
27 25 24 22 21 21 20 19 18 16 14 12 11 10 10 10 10 10 10 10 10 10 11 11 11 11 11 11 12 12 13 13 13 14 14 14 14 14 15 15 15 16 15 14 13 12 12 13 13 13 12 11 11 12 12 13 13 14 14 13 13 14 14 13 13 13 13 13 13 12 12 12 12 12 12 12 12 13 12 12 11 10 10 10 10
25 24 22 22 21 21 20 19 18 16 14 13 11 10 10 10 10 10 9 9 10 10 11 11 10 11 11 11 12 12 12 12 12 13 13 13 14 14 15 15 15 16 15 14 13 12 11 12 13 13 12 11 11 12 13 13 13 14 15 15 14 15 15 14 14 14 14 13 14 14 14 14 13 13 12 12 12 13 13 13 12 12 11 11 11
24 22 21 21 21 21 20 19 18 16 14 13 11 10 10 10 10 10 9 9 10 10 10 10 10 10 11 11 11 11 11 11 11 11 12 12 13 14 14 15 15 15 15 15 13 12 11 12 13 13 11 11 11 12 14 15 15 15 16 16 16 16 16 15 15 14 14 14 14 15 14 15 14 14 14 13 13 13 13 14 14 13 13 12 11
22 21 21 21 22 22 21 19 17 16 14 13 12 11 10 10 10 9 9 9 9 10 10 10 10 10 10 10 11 11 10 10 10 10 11 12 12 13 14 14 14 15 15 15 14 12 12 13 14 13 12 11 11 13 15 16 18 18 18 17 17 18 18 17 17 16 15 15 15 16 15 15 15 15 15 14 14 13 13 14 14 14 14 13 12
21 20 21 22 22 22 20 19 17 16 14 13 12 11 10 9 9 9 9 9 9 10 9 9 10 10 10 10 11 10 9 9 9 9 10 11 11 12 12 13 13 14 14 14 14 13 12 13 14 14 14 13 12 13 14 16 18 19 19 18 17 18 19 19 18 17 17 16 16 17 17 16 15 15 15 15 15 14 14 14 14 15 14 14 13
20 21 22 22 22 21 19 18 16 15 14 13 12 10 10 10 10 9 9 9 10 10 9 9 9 10 10 10 10 10 9 9 9 9 9 10 10 11 11 12 12 13 14 14 14 13 13 13 13 13 14 13 12 12 13 14 16 17 19 19 18 17 18 19 19 19 18 17 17 18 18 18 17 15 15 15 16 15 15 14 14 15 15 15 14
20 21 22 22 21 20 18 17 16 15 14 13 12 11 10 10 10 9 9 9 9 10 10 9 9 10 10 10 10 10 10 9 9 9 8 9 9 9 10 10 11 12 13 13 13 13 13 13 13 13 13 14 13 13 13 13 14 16 18 19 19 18 17 18 19 19 18 17 17 18 18 19 18 17 16 15 16 16 16 15 14 15 16 15 15
20 21 22 22 21 19 18 17 16 15 13 13 12 12 12 11 11 10 9 9 9 9 10 9 9 10 10 10 11 11 10 10 9 8 8 8 8 8 8 9 10 11 12 12 12 12 13 13 14 14 14 14 15 15 15 15 14 15 17 19 21 20 19 18 18 19 19 18 18 18 18 19 19 19 17 16 15 16 17 16 15 15 15 16 15
21 22 23 22 21 20 19 18 16 14 13 13 13 13 13 13 12 11 10 10 9 9 9 10 10 10 10 10 11 11 10 10 9 8 8 8 8 7 7 8 9 10 10 11 11 11 11 12 13 14 14 15 16 17 17 17 16 15 16 18 20 21 21 21 20 19 20 19 18 18 18 19 20 20 19 18 16 16 17 17 16 15 15 15 16
22 23 23 22 22 20 19 17 15 14 14 14 15 15 15 15 14 13 12 10 10 9 9 9 10 10 10 10 10 10 10 10 9 8 8 8 8 8 7 7 7 8 9 9 10 10 11 11 12 13 14 15 16 17 18 19 19 18 17 17 18 20 21 22 22 21 21 20 19 19 19 19 20 20 20 19 18 16 17 17 17 16 15 15 16
23 24 24 23 22 20 19 17 16 15 15 16 16 16 16 17 16 15 13 11 10 9 9 9 9 10 10 10 10 10 10 9 9 8 8 8 8 8 8 7 7 7 8 8 9 10 10 11 11 12 13 15 16 18 19 20 21 21 21 20 19 19 20 22 23 22 22 21 20 21 22 21 20 20 20 20 20 18 17 17 17 16 15 15 15
23 24 24 23 22 20 19 17 16 16 16 17 17 17 18 18 18 17 15 13 11 10 10 9 9 10 10 10 11 10 10 9 9 9 8 8 8 8 8 8 7 8 8 8 8 9 9 10 11 12 14 16 17 18 20 20 21 22 23 23 22 21 21 22 23 23 23 23 23 24 26 24 21 20 20 20 20 20 19 18 17 17 16 15 15
23 23 23 23 22 20 19 18 18 18 18 18 18 19 19 20 19 18 16 14 12 12 11 11 10 10 10 11 11 11 10 9 9 9 8 8 8 8 8 8 8 9 9 9 9 9 10 11 12 13 15 16 18 19 20 20 21 21 22 23 23 22 22 22 23 25 25 25 25 25 27 26 24 21 20 21 21 20 20 19 18 17 16 16 16
24 24 24 24 23 21 20 20 20 20 20 20 20 20 21 21 20 19 18 16 14 14 13 12 12 11 11 11 11 11 10 10 10 9 9 9 8 8 8 8 9 9 10 10 10 10 11 12 13 14 15 16 17 18 19 20 20 21 22 22 23 23 23 23 24 26 27 27 27 27 28 27 25 23 20 20 21 20 21 21 20 19 17 17 16
24 24 25 25 24 23 22 21 22 21 21 21 21 22 22 22 21 21 19 18 17 16 14 12 11 11 11 11 11 10 10 10 9 9 9 9 9 8 8 8 9 10 10 11 11 11 12 12 13 14 15 16 17 18 18 19 19 20 21 22 24 24 24 24 25 26 27 28 27 28 29 29 26 23 21 20 20 20 21 21 21 20 19 18 17
22 24 26 27 26 24 23 23 23 22 22 22 23 23 23 22 22 22 20 19 19 16 13 10 9 10 11 11 10 10 9 9 9 9 9 9 10 9 9 9 10 11 11 12 12 12 13 13 14 14 15 15 16 17 18 18 19 19 21 22 24 25 25 26 26 26 27 28 28 27 28 29 29 23 20 21 20 19 20 21 21 21 21 19 18
22 26 27 27 26 25 25 25 24 23 23 23 24 24 24 23 22 21 21 20 19 17 14 12 11 12 11 10 10 9 9 9 9 10 10 10 10 10 10 11 11 12 12 13 13 13 14 14 14 15 15 15 16 17 17 18 19 20 21 22 23 25 26 26 26 26 26 27 28 28 26 27 28 24 21 22 21 20 20 21 21 21 21 20 19
25 28 28 26 26 26 27 27 26 25 25 25 25 25 25 23 23 22 21 20 19 17 15 15 14 12 11 10 9 9 9 10 10 10 10 10 10 11 11 12 13 13 14 14 15 15 15 15 16 16 16 16 16 17 17 18 18 19 20 22 23 24 26 27 27 26 26 26 26 27 26 25 26 24 22 22 22 21 21 21 21 21 21 21 20
28 29 28 28 28 29 29 28 27 27 27 27 26 26 26 25 24 23 21 20 18 17 15 14 13 12 11 10 10 10 10 11 11 10 10 10 11 12 12 14 15 15 15 16 16 17 17 17 17 17 17 17 17 17 17 18 18 19 20 21 22 24 25 26 26 26 26 26 26 26 25 25 25 24 22 22 23 23 23 22 21 21 22 21 20
31 31 32 32 31 31 31 30 29 29 28 26 26 26 25 25 24 22 20 19 17 15 14 13 12 11 11 11 10 10 10 11 11 11 11 11 12 13 14 15 16 16 17 17 17 18 18 19 19 19 19 19 19 19 19 19 19 19 20 20 21 23 24 25 25 26 27 27 26 26 25 25 25 25 24 22 23 24 24 24 24 23 23 23 22
34 34 35 35 34 33 32 31 29 28 27 26 25 24 23 22 21 21 20 18 16 15 14 13 12 11 10 10 10 10 10 11 11 11 12 12 13 14 15 16 17 17 17 17 17 18 19 20 21 21 21 20 20 20 21 20 20 20 20 21 21 23 23 24 24 25 26 26 25 25 25 26 25 25 26 25 25 25 24 24 25 25 24 24 23
34 34 35 37 35 32 29 29 28 27 25 24 23 23 23 22 21 21 18 16 15 14 13 13 12 11 10 10 10 10 10 10 11 12 12 12 13 14 16 17 17 18 17 18 18 18 19 20 21 22 22 22 21 21 22 22 22 22 21 22 22 23 24 24 24 24 25 25 25 25 25 26 27 26 26 27 27 27 26 25 25 26 25 25 25
31 30 32 35 32 28 27 27 28 28 25 23 22 22 23 23 22 20 16 14 13 13 13 13 11 10 10 10 10 10 10 10 11 11 12 13 13 15 16 17 18 18 18 18 19 19 20 20 21 21 22 22 22 22 22 22 23 22 22 23 23 23 23 25 25 25 25 24 25 25 24 25 27 27 26 26 27 28 28 27 27 27 26 26 26
29 27 29 31 27 25 28 27 28 28 27 25 24 23 22 23 21 18 14 13 14 14 13 12 10 10 10 10 10 10 10 11 11 12 12 13 14 15 16 17 17 18 18 18 19 20 20 21 21 22 22 22 22 23 23 23 23 23 23 23 23 23 23 24 25 25 24 24 25 26 24 24 26 27 27 26 26 27 27 28 28 28 28 26 26
27 26 26 28 26 26 27 25 26 28 29 26 23 21 21 22 20 16 14 14 14 14 13 12 11 10 10 10 10 11 11 12 12 12 13 14 15 16 16 17 17 18 19 19 20 20 21 21 22 22 22 22 22 22 23 24 24 23 23 23 23 24 24 24 25 25 25 24 25 25 24 25 26 26 27 26 26 26 26 27 28 29 29 28 27
24 23 24 26 26 26 24 22 23 26 27 25 22 21 20 21 20 17 15 15 15 14 13 12 11 11 11 11 11 12 12 13 13 13 14 15 15 16 17 17 18 18 19 20 20 20 21 22 22 22 22 23 23 22 22 23 23 23 23 23 24 24 25 25 25 26 26 25 25 25 25 26 27 25 25 26 26 25 24 26 29 29 28 29 28
24 24 25 26 27 27 25 22 21 21 22 22 22 22 21 19 17 16 15 15 16 15 14 12 11 12 11 11 12 12 13 13 13 14 14 15 16 17 17 18 18 18 19 20 20 21 21 21 22 23 23 23 24 23 23 23 23 24 24 24 24 24 25 25 25 26 27 27 26 26 25 26 27 26 25 26 26 25 23 25 28 29 28 27 29
28 27 26 26 27 26 27 26 22 20 21 21 20 20 20 18 15 15 15 16 16 15 14 13 12 12 12 12 12 12 13 13 14 14 15 16 16 17 17 18 19 19 19 20 20 21 21 21 22 23 23 24 24 24 23 23 23 24 24 25 25 25 25 25 26 25 26 28 27 27 27 27 27 26 26 26 26 24 24 25 27 28 28 28 30
30 30 29 27 26 23 23 25 22 21 22 21 19 18 17 17 16 16 16 16 15 15 14 14 13 13 13 12 12 12 13 13 14 14 15 16 16 17 18 18 19 19 20 20 21 21 22 22 22 23 23 24 24 24 24 24 23 23 24 25 25 26 26 26 26 26 26 27 28 28 28 28 28 27 26 26 26 25 25 26 26 27 28 30 32
28 29 29 28 27 23 20 21 21 19 20 19 17 16 15 16 17 16 16 16 15 15 14 14 13 13 13 13 12 13 13 13 14 14 15 16 16 17 18 18 19 20 20 21 21 22 22 23 23 24 24 24 24 24 24 24 24 24 24 24 25 25 26 26 26 27 26 27 28 29 29 29 29 28 27 26 26 26 26 27 27 27 28 31 32
22 23 24 25 25 22 19 18 19 18 17 15 14 15 16 16 17 16 16 16 15 15 15 14 14 14 14 14 13 13 14 14 14 15 15 16 17 17 18 19 19 20 21 22 22 23 23 23 24 24 25 25 25 25 25 25 25 25 25 25 25 25 26 27 27 27 27 27 28 29 29 29 29 29 28 27 26 27 28 28 28 28 29 31 32
17 18 21 23 21 20 19 17 17 16 15 15 15 16 16 16 16 16 16 16 15 15 15 14 14 14 14 14 14 14 14 15 15 15 16 16 17 17 18 19 20 20 21 22 23 23 24 24 25 25 26 26 26 26 26 26 26 26 26 26 26 27 27 27 27 27 27 27 27 28 29 29 29 30 29 28 27 27 27 28 29 29 29 31 32
17 19 21 23 21 20 20 20 19 18 17 16 16 16 16 15 16 16 16 15 15 15 15 15 14 14 14 15 15 15 15 15 15 15 16 16 17 18 18 19 20 21 22 23 23 24 25 25 25 26 26 26 27 27 26 26 27 27 27 27 27 28 28 28 28 29 29 29 28 28 30 30 29 30 31 29 28 28 27 27 27 29 30 31 32
Wind_Direction
334 336 337 332 327 324 324 322 322 314 312 315 319 321 325 337 340 344 344 347 347 347 347 345 343 341 340 341 342 341 342 342 345 347 347 349 351 353 353 0 6 13 22 30 36 40 43 47 45 43 43 43 41 38 32 27 23 21 18 18 21 26 28 27 27 20 14 8 6 359 354 346 347 356 356 358 358 356 353 344 329 322 316 306 299
328 331 333 332 326 320 320 317 317 311 308 308 312 314 317 329 336 342 341 343 345 346 345 343 342 340 340 339 340 340 340 341 344 347 347 351 352 352 353 359 6 11 17 24 31 35 40 44 46 43 41 40 39 36 32 27 22 21 16 14 14 15 13 13 16 13 7 1 3 360 357 355 357 3 4 6 3 1 356 348 341 333 328 320 311
322 325 329 331 326 317 316 313 312 309 306 301 303 307 309 321 330 337 337 340 341 343 342 342 341 339 338 338 339 338 339 341 344 346 347 352 353 350 352 357 3 9 12 17 23 29 36 40 44 44 42 39 36 34 31 27 19 17 13 10 7 7 3 360 359 360 1 356 357 357 357 357 358 1 4 8 6 5 1 354 351 347 343 334 325
317 321 323 327 324 316 312 309 308 306 305 298 295 300 304 314 324 333 334 337 338 340 340 340 340 338 337 337 339 338 339 341 344 346 346 351 353 350 351 355 359 4 7 10 14 19 29 35 39 43 43 40 36 32 28 24 17 11 6 1 357 358 355 349 347 352 357 357 357 354 353 351 350 354 356 0 1 0 359 357 355 353 348 341 336
313 314 317 322 320 314 309 306 305 304 304 296 290 293 300 308 317 328 331 334 335 336 339 340 338 337 337 337 338 338 339 342 345 346 346 350 352 349 348 352 356 0 3 5 9 11 18 24 32 37 40 40 36 31 26 20 14 7 359 351 345 343 342 339 339 344 350 353 354 350 349 348 347 349 350 350 350 350 350 352 350 347 344 342 341
307 307 312 316 317 313 305 303 302 302 301 293 287 289 296 303 311 322 328 330 331 335 338 339 337 337 337 337 339 338 340 342 345 346 345 348 350 347 345 348 353 358 359 1 4 4 8 13 20 27 33 36 34 31 25 19 12 5 355 344 336 332 327 325 324 327 334 338 341 342 343 343 343 343 342 341 340 341 340 340 338 335 335 337 338
300 301 307 310 313 310 302 299 298 298 296 288 284 287 293 299 309 317 324 326 330 335 339 338 335 336 336 337 339 340 341 343 345 347 346 346 348 346 342 343 349 354 355 357 357 359 2 6 8 11 20 27 30 29 26 20 12 5 357 345 335 328 317 310 308 311 317 320 324 331 334 334 335 335 334 334 334 333 332 331 329 327 326 328 329
293 297 302 306 309 307 300 296 295 293 288 283 282 285 292 299 308 315 322 326 331 334 337 336 333 334 335 337 339 341 342 343 346 347 347 346 347 344 340 338 343 349 349 351 351 356 360 2 2 358 0 8 18 22 24 19 11 5 358 350 340 330 319 310 304 303 307 310 316 322 323 324 326 328 329 329 330 329 329 329 327 324 322 322 323
288 294 298 303 306 304 298 292 291 288 282 278 278 283 291 302 308 315 322 325 330 333 334 333 333 334 335 337 339 341 342 343 345 347 347 347 346 343 339 336 338 342 341 342 344 351 358 359 358 356 350 350 358 3 13 12 5 2 0 355 346 335 324 315 309 307 307 307 312 316 317 318 321 326 328 328 329 330 329 329 327 324 323 323 322
286 292 297 301 302 302 295 289 287 282 278 274 274 282 291 302 309 317 323 326 329 330 332 333 333 334 335 337 339 341 342 344 345 346 346 346 346 344 339 335 334 335 334 334 336 344 354 357 354 354 350 346 347 347 355 359 356 355 357 357 348 339 329 320 316 312 308 307 310 313 315 316 319 326 329 330 331 330 330 329 328 325 325 324 321
286 292 296 298 299 300 292 285 282 277 273 269 272 280 292 302 310 319 322 324 327 329 332 334 334 334 334 337 339 340 342 345 346 345 346 345 345 344 340 335 332 331 330 328 331 338 346 351 350 350 349 348 346 342 344 345 347 347 348 349 344 339 331 322 318 315 311 310 311 311 313 316 321 327 329 330 329 327 328 328 327 327 326 324 320
287 292 294 295 297 296 288 280 276 273 268 266 271 280 293 304 312 318 320 322 325 329 333 335 334 334 335 337 339 340 343 346 348 347 345 344 343 342 340 337 333 328 326 326 327 331 337 340 343 345 345 345 344 341 340 338 339 341 340 339 337 336 330 322 319 317 315 314 313 312 313 317 322 326 328 327 325 325 326 327 327 327 325 322 320
287 290 290 292 294 291 282 275 271 267 264 263 270 281 292 301 310 314 317 320 324 329 333 335 333 332 334 337 338 340 342 346 350 350 346 343 341 339 338 337 335 330 324 323 324 325 328 330 333 337 338 340 340 338 336 335 335 336 335 332 330 331 328 322 319 318 317 317 316 314 313 316 322 325 327 325 325 325 325 325 325 323 321 320 320
285 286 287 289 289 285 276 268 266 262 260 261 269 279 288 297 306 310 314 319 324 329 331 332 330 330 332 335 338 340 341 344 350 351 347 344 341 339 337 336 337 334 327 323 322 322 322 322 325 329 332 335 337 336 334 332 331 331 330 329 326 326 326 322 318 318 318 319 318 314 313 315 320 325 327 326 326 326 325 324 322 321 320 321 321
282 282 284 285 284 279 269 263 261 258 256 258 266 275 283 294 303 307 312 317 323 327 329 329 326 328 331 335 337 340 340 342 347 350 349 345 342 340 338 337 336 335 331 325 321 320 318 316 317 321 325 330 334 335 334 330 327 326 325 325 323 323 324 323 319 319 320 319 318 315 312 313 317 323 326 326 327 327 325 323 322 322 321 322 323
277 279 281 282 279 271 262 258 255 253 251 254 262 270 281 292 300 305 310 315 321 324 326 325 324 328 330 334 337 339 340 341 344 348 348 346 344 342 341 340 338 336 331 327 321 317 314 310 309 313 318 323 327 331 332 331 327 323 321 319 320 320 321 322 321 322 322 319 317 314 311 310 313 317 322 325 326 325 323 321 320 321 321 321 320
274 275 277 276 271 262 256 254 250 247 246 251 259 267 280 291 296 302 307 313 318 321 323 321 323 327 329 333 337 338 339 340 342 345 345 344 345 345 344 343 343 339 332 327 321 316 311 307 305 306 311 317 321 325 328 330 329 324 320 319 319 318 317 319 320 321 321 320 317 311 309 307 308 311 315 320 322 322 319 317 317 318 319 318 316
270 271 272 270 262 254 251 249 245 241 242 247 256 267 279 287 293 298 303 309 314 318 319 319 322 324 328 333 336 337 338 340 340 341 341 342 345 347 347 346 348 346 339 329 322 319 313 308 305 304 307 312 317 320 324 327 327 325 320 319 319 318 316 316 318 319 320 322 321 315 311 308 305 305 307 313 318 319 318 315 314 315 316 315 313
266 267 266 261 252 248 248 245 240 238 239 246 254 266 277 284 289 294 299 305 311 315 316 317 321 322 328 334 334 335 337 338 337 338 339 341 343 345 348 348 350 352 349 338 326 320 316 312 309 308 307 309 314 317 321 324 324 323 319 318 318 316 315 315 315 317 319 322 322 319 316 312 307 303 301 305 311 315 317 315 313 312 313 313 314
263 262 260 253 247 246 245 241 237 236 239 244 253 263 274 281 286 290 296 303 309 311 313 314 317 321 326 332 331 331 334 336 336 336 337 339 341 343 346 348 348 350 351 346 334 321 317 318 314 310 307 306 311 314 316 319 320 319 318 317 316 314 313 315 312 312 316 319 319 317 317 314 310 306 301 300 303 309 314 315 313 311 311 312 315
258 257 254 247 243 243 241 237 235 235 238 243 251 262 270 278 284 287 293 301 307 307 309 312 315 318 323 327 326 328 332 335 336 334 335 338 339 341 344 346 346 346 346 346 340 327 316 314 312 306 301 303 309 312 314 315 316 315 314 316 316 313 313 315 313 311 312 315 316 315 316 315 312 308 304 300 299 303 309 312 312 310 310 311 315
255 253 249 242 238 239 237 235 234 235 238 244 251 259 267 276 280 283 292 298 301 302 305 309 312 315 319 322 321 324 329 332 334 330 332 336 338 340 343 344 344 343 341 342 342 334 321 311 306 302 298 300 307 311 314 314 313 312 310 312 315 314 314 315 313 312 312 313 313 313 314 314 312 309 305 302 299 299 302 307 310 309 309 309 313
254 248 242 237 235 236 234 234 235 237 239 245 252 257 266 271 272 277 286 293 295 296 301 304 308 312 314 316 316 321 327 329 329 328 330 333 337 340 342 343 342 340 338 340 341 338 328 317 311 307 305 305 309 310 313 315 314 313 312 313 315 315 315 315 313 312 312 312 311 310 311 311 311 309 305 302 299 297 296 300 305 307 307 307 308
249 242 237 234 234 233 233 236 238 240 241 246 252 257 263 264 263 269 278 285 290 292 296 300 304 307 309 312 315 319 322 324 325 326 328 330 334 338 342 343 341 339 338 339 340 338 333 327 321 318 316 316 317 317 319 321 319 317 317 317 317 317 317 315 314 312 310 310 308 307 308 308 309 309 305 302 298 296 293 294 299 303 306 306 306
246 239 235 233 233 233 233 237 239 241 242 246 252 256 258 257 254 260 271 278 284 288 292 296 299 302 307 311 314 317 317 321 323 322 323 325 329 335 342 342 341 340 340 340 338 338 335 333 330 326 324 322 324 326 325 326 324 320 318 317 317 318 319 317 314 311 309 307 305 304 304 304 305 306 305 301 297 294 292 291 294 299 303 305 305
242 237 235 234 233 233 234 236 239 241 243 247 252 254 253 250 248 253 263 270 277 283 288 293 297 300 305 310 312 314 315 317 318 317 317 320 323 330 339 339 339 340 340 341 338 338 336 334 332 330 328 325 325 325 325 325 324 320 317 317 315 316 317 317 315 312 311 308 304 301 300 300 300 300 301 299 296 293 291 290 290 293 299 303 304
240 238 237 235 233 232 234 236 239 242 244 249 250 251 250 247 245 248 254 262 270 277 284 289 294 298 304 310 312 312 311 313 313 313 313 313 317 325 334 335 335 336 338 340 340 339 338 334 331 329 327 325 323 322 323 323 322 321 318 318 317 317 316 315 317 318 318 313 306 301 297 295 295 295 295 295 294 292 290 289 288 288 293 298 301
243 241 238 235 234 233 234 237 240 244 247 249 249 248 248 245 241 243 248 255 265 273 281 287 293 300 305 307 307 306 305 306 307 308 307 307 313 320 326 331 331 330 330 333 336 339 339 336 331 328 325 323 322 321 322 322 320 320 318 318 319 319 317 314 316 319 320 317 310 304 299 292 289 290 291 292 291 288 287 286 286 286 288 293 298
246 243 240 236 235 234 235 238 241 244 246 245 245 245 244 241 238 241 246 252 262 271 278 285 293 298 302 301 297 298 297 297 300 300 300 303 308 316 323 327 330 326 321 324 329 331 332 332 329 327 325 323 323 323 323 321 319 319 319 319 321 321 319 316 315 316 317 315 309 306 302 293 284 285 287 289 290 286 285 284 283 284 283 287 292
248 244 240 238 236 235 236 239 242 242 242 241 241 241 241 238 237 240 245 252 259 267 274 279 287 292 295 294 292 291 290 291 293 293 296 301 307 314 321 324 324 321 318 320 324 324 323 324 325 325 325 325 325 324 323 322 320 319 319 320 322 322 321 318 316 315 315 312 307 305 305 296 283 282 285 285 288 286 284 283 281 280 279 280 284
248 244 240 239 237 236 237 239 240 240 239 238 239 240 239 237 237 240 245 251 257 262 268 274 281 288 293 293 290 287 286 286 285 288 292 298 306 311 318 322 321 324 325 324 323 323 321 321 322 323 323 325 325 324 322 322 321 320 320 321 322 321 320 319 316 314 313 310 307 307 307 301 287 279 282 284 286 286 284 283 280 278 277 276 277
247 244 241 241 239 237 237 238 239 240 239 238 238 239 238 237 237 240 244 248 254 259 264 274 281 287 295 296 291 285 280 279 281 285 292 296 302 307 313 318 320 324 324 320 318 318 317 317 317 316 317 320 322 322 322 320 321 321 322 322 321 320 319 318 315 313 311 308 307 306 306 305 294 278 277 282 284 286 283 282 281 278 276 275 275
251 249 246 243 241 238 235 236 238 238 239 239 239 239 238 237 237 241 243 246 251 255 261 269 276 290 300 298 292 284 279 279 283 287 291 293 295 301 308 311 314 314 313 310 310 309 309 309 310 310 311 315 319 321 321 319 319 320 320 320 319 319 318 317 314 312 310 306 306 306 304 306 303 286 275 279 282 285 285 282 282 282 279 275 274
258 256 250 244 241 238 236 235 237 238 239 239 240 240 238 237 238 240 242 246 250 255 261 263 273 295 301 298 292 283 279 280 281 283 284 288 292 298 303 307 309 308 307 305 304 303 303 304 305 307 310 312 316 318 320 319 317 317 318 318 319 320 319 319 317 314 311 308 306 305 303 304 308 299 279 275 278 282 284 282 281 283 282 278 275
253 252 248 245 242 239 235 234 236 238 239 241 241 240 239 238 239 241 242 246 250 256 266 275 287 300 299 297 292 281 276 272 271 275 281 287 292 297 302 306 307 306 305 303 303 303 302 304 305 307 309 311 313 316 318 318 317 317 317 318 319 320 321 322 320 317 315 312 309 307 304 304 309 305 283 273 277 279 280 280 280 280 280 279 276
242 243 243 242 241 239 235 233 235 237 239 240 240 239 237 237 239 241 242 244 248 254 264 278 290 297 297 295 285 274 268 264 266 273 280 288 293 298 302 304 305 304 304 304 305 304 304 305 306 307 308 310 312 314 316 316 316 316 316 317 318 320 321 322 321 319 318 318 315 311 308 305 308 307 290 276 276 280 280 279 279 280 280 280 278
236 236 236 236 236 236 235 233 233 236 237 237 236 236 235 235 237 238 239 241 245 250 260 275 284 289 291 287 279 272 267 266 269 273 281 288 294 299 301 300 302 305 306 307 307 307 307 306 306 306 307 310 311 312 314 314 314 315 315 316 316 317 318 320 320 318 318 319 318 316 313 307 305 305 298 284 278 281 284 281 278 278 279 280 279
235 234 232 231 232 234 234 233 234 236 236 237 236 234 232 233 234 235 236 237 240 246 259 270 276 282 284 282 280 275 272 271 272 276 282 289 294 297 297 298 302 305 308 309 310 310 310 310 309 309 309 311 312 312 312 313 313 314 314 313 313 313 315 317 317 316 317 318 318 318 317 311 305 301 299 292 284 284 286 283 279 276 276 277 277
234 234 233 230 231 233 232 231 232 234 235 236 235 233 233 233 233 235 235 232 235 243 255 263 268 274 276 278 279 277 276 276 277 280 284 289 295 296 296 299 302 305 307 308 310 311 311 312 312 311 312 313 312 312 312 311 312 312 312 312 310 311 311 311 311 313 315 317 316 316 316 316 311 304 298 293 290 288 286 285 281 276 274 273 273
234 235 234 230 229 232 230 229 231 233 232 229 229 232 234 236 237 235 227 221 231 242 249 256 264 269 271 275 277 279 281 282 283 285 289 293 296 296 297 300 303 305 307 308 309 310 311 312 312 312 312 312 312 312 311 311 311 312 311 310 309 309 309 308 309 312 313 313 314 313 313 315 315 309 302 295 291 288 287 286 283 280 277 273 270
236 238 234 230 228 231 231 228 228 229 228 226 228 231 232 237 239 230 217 218 233 242 247 254 261 266 268 273 278 282 285 286 288 291 295 297 296 296 298 301 304 306 307 308 308 309 311 311 311 311 311 312 313 312 311 311 311 311 310 309 309 308 307 307 308 310 309 310 312 311 310 312 313 311 306 300 293 289 287 285 283 283 282 278 273
237 243 237 234 233 232 230 227 228 229 229 228 228 228 230 232 228 218 216 225 235 238 245 255 261 265 269 274 279 283 286 290 292 296 297 296 295 296 298 302 303 305 305 307 308 310 311 311 311 311 311 312 312 312 311 310 310 310 310 310 309 307 306 305 306 308 310 309 311 310 307 308 310 309 307 304 298 292 287 284 282 282 283 280 277
239 246 239 237 236 235 232 226 225 227 227 226 224 226 228 222 214 215 223 228 234 238 243 253 260 265 271 277 282 286 290 294 296 298 297 296 296 298 300 303 303 305 306 308 309 310 311 312 312 312 312 311 311 311 310 309 309 309 309 309 309 308 307 307 308 309 309 308 307 308 307 305 306 307 307 306 300 295 291 288 284 282 280 279 278
242 242 235 232 232 233 231 223 222 223 224 222 222 224 220 214 216 223 227 228 233 239 244 251 257 263 271 278 284 289 292 296 297 298 297 297 299 301 303 305 306 308 309 309 309 310 311 312 312 312 312 312 311 310 309 308 308 309 309 310 309 309 309 309 310 309 308 308 307 307 307 304 304 306 308 306 301 298 295 290 286 283 279 277 278
243 241 236 230 228 230 228 225 222 219 219 219 220 218 212 214 222 224 226 230 233 238 245 250 255 261 269 277 283 289 292 295 297 297 299 300 302 303 305 307 307 308 308 308 309 310 311 311 312 312 312 312 312 311 311 310 309 310 311 311 309 310 311 310 310 310 310 310 309 307 305 302 302 304 307 307 303 300 295 290 288 286 281 278 278
243 243 240 233 227 227 227 226 224 223 226 222 213 206 207 215 224 226 228 231 234 240 246 251 256 261 268 276 284 289 293 296 298 299 300 301 302 304 306 307 307 308 307 308 309 310 311 311 311 312 312 311 311 311 312 311 311 311 312 311 310 310 312 312 311 311 310 309 309 308 305 303 303 303 305 307 306 302 298 296 292 288 284 280 277
245 247 247 240 231 227 223 220 221 224 220 208 198 201 213 223 227 230 230 231 237 242 247 251 256 261 267 276 283 287 291 295 297 299 300 301 303 304 305 305 306 307 307 307 308 309 310 311 311 310 310 310 309 310 310 311 310 311 311 310 311 311 312 312 312 311 311 310 308 307 308 307 307 307 306 306 305 301 299 298 292 286 284 280 277
246 246 245 241 234 229 220 213 213 209 199 194 202 218 229 232 232 234 234 236 240 243 248 254 258 262 267 273 279 283 287 291 293 296 298 300 301 302 302 303 304 305 306 307 308 309 310 310 310 309 309 308 308 308 309 310 310 310 310 309 309 310 310 310 310 311 312 311 308 307 307 308 309 309 308 306 303 301 301 300 295 288 284 280 276
242 243 242 241 237 229 219 208 204 202 203 211 226 237 240 240 240 240 240 241 244 247 251 255 260 264 268 271 274 278 282 286 289 292 294 296 298 299 301 302 304 305 306 307 308 309 310 310 310 309 309 309 309 309 309 309 309 309 308 308 308 307 307 307 308 309 310 310 309 308 307 306 308 308 307 306 305 303 301 301 298 293 285 280 276
240 253 247 238 232 223 215 208 204 212 226 235 242 245 247 246 245 245 244 245 247 250 252 255 261 267 270 272 274 278 282 285 288 291 293 295 298 300 302 303 305 306 307 308 308 308 308 309 309 309 309 309 309 309 308 308 307 307 307 306 306 306 306 306 306 307 307 307 308 307 307 307 307 306 304 306 307 305 301 299 298 296 290 283 279
253 267 251 234 227 216 214 220 225 235 244 246 245 246 246 246 246 247 247 248 249 252 255 259 265 270 274 276 277 279 282 285 288 292 295 298 301 303 304 306 307 308 308 308 308 308 307 307 308 308 308 307 307 307 306 305 305 305 305 304 304 304 304 305 305 305 305 306 306 306 306 306 308 306 303 304 306 306 303 300 297 296 293 289 285
Height
5878 5878 5878 5877 5876 5876 5875 5874 5874 5873 5872 5872 5871 5870 5869 5868 5867 5866 5865 5864 5863 5862 5862 5861 5860 5859 5858 5857 5856 5855 5854 5853 5852 5851 5849 5848 5847 5846 5844 5844 5843 5842 5841 5840 5839 5839 5838 5837 5836 5836 5835 5834 5834 5833 5833 5833 5833 5833 5833 5832 5832 5832 5832 5832 5832 5832 5832 5832 5832 5832 5831 5831 5831 5831 5831 5831 5831 5831 5831 5831 5831 5831 5831 5831 5831
5878 5878 5878 5877 5876 5875 5875 5874 5873 5873 5872 5871 5870 5870 5869 5868 5867 5866 5865 5864 5863 5862 5861 5861 5860 5859 5858 5857 5856 5855 5854 5853 5852 5851 5849 5848 5846 5845 5844 5844 5843 5842 5841 5841 5840 5839 5838 5838 5837 5836 5836 5835 5834 5834 5834 5833 5833 5833 5833 5832 5832 5832 5832 5832 5832 5833 5832 5832 5832 5832 5832 5832 5831 5831 5831 5831 5831 5831 5831 5831 5831 5831 5831 5831 5831
5878 5878 5877 5876 5876 5875 5874 5873 5873 5872 5872 5871 5870 5869 5869 5868 5866 5866 5864 5863 5862 5862 5861 5861 5860 5859 5858 5857 5856 5855 5854 5853 5851 5850 5849 5848 5847 5845 5845 5844 5843 5842 5842 5841 5840 5840 5839 5838 5838 5837 5836 5835 5835 5834 5834 5834 5834 5833 5833 5833 5832 5832 5832 5832 5833 5833 5833 5832 5832 5832 5832 5832 5831 5831 5831 5831 5831 5831 5831 5831 5831 5831 5830 5830 5830
5877 5877 5877 5876 5875 5874 5874 5873 5872 5872 5871 5870 5869 5869 5868 5867 5866 5865 5864 5863 5862 5861 5861 5861 5860 5859 5858 5857 5856 5855 5854 5852 5851 5850 5849 5848 5847 5846 5845 5844 5843 5842 5842 5841 5841 5840 5840 5839 5838 5837 5837 5836 5835 5835 5834 5834 5834 5833 5833 5833 5833 5833 5832 5832 5833 5832 5832 5832 5832 5832 5832 5832 5832 5831 5831 5831 5831 5831 5831 5830 5830 5830 5830 5830 5830
5877 5876 5876 5876 5875 5874 5873 5873 5872 5871 5870 5869 5869 5868 5868 5867 5866 5865 5864 5863 5862 5861 5861 5861 5860 5859 5858 5857 5856 5855 5854 5852 5851 5850 5848 5848 5847 5846 5845 5844 5844 5843 5842 5841 5841 5840 5840 5839 5839 5838 5837 5836 5836 5835 5835 5835 5834 5834 5833 5833 5833 5833 5832 5832 5832 5832 5832 5832 5832 5832 5832 5832 5832 5831 5831 5831 5831 5830 5830 5830 5830 5830 5830 5830 5830
5876 5876 5875 5875 5874 5873 5873 5872 5872 5870 5870 5869 5868 5868 5867 5866 5865 5864 5863 5862 5862 5861 5861 5860 5860 5859 5858 5857 5856 5855 5854 5852 5851 5850 5848 5847 5847 5846 5845 5845 5844 5843 5842 5841 5841 5841 5840 5840 5839 5838 5837 5837 5836 5836 5835 5835 5835 5834 5834 5834 5833 5833 5833 5833 5832 5832 5832 5832 5832 5832 5832 5831 5831 5831 5831 5831 5831 5830 5830 5830 5830 5830 5829 5829 5829
5875 5875 5875 5874 5873 5873 5872 5872 5871 5870 5869 5868 5868 5867 5866 5866 5865 5864 5863 5862 5861 5861 5861 5860 5859 5859 5858 5857 5856 5855 5854 5853 5851 5850 5849 5847 5847 5846 5845 5845 5844 5843 5842 5842 5841 5841 5841 5840 5839 5839 5838 5837 5837 5836 5835 5835 5835 5835 5834 5834 5834 5833 5833 5833 5833 5832 5832 5832 5832 5831 5831 5831 5831 5831 5831 5831 5830 5830 5830 5830 5829 5829 5829 5829 5829
5874 5874 5874 5873 5872 5872 5871 5871 5870 5869 5868 5868 5867 5867 5866 5865 5865 5864 5863 5862 5861 5861 5860 5860 5859 5858 5858 5857 5856 5855 5854 5853 5851 5850 5849 5848 5847 5846 5846 5845 5844 5843 5842 5842 5841 5841 5841 5840 5839 5839 5838 5838 5837 5836 5836 5835 5835 5835 5835 5834 5834 5833 5833 5833 5833 5832 5832 5832 5831 5831 5831 5831 5831 5830 5830 5830 5830 5830 5830 5829 5829 5829 5829 5829 5828
5873 5873 5872 5872 5871 5871 5870 5870 5869 5869 5868 5867 5867 5866 5865 5865 5864 5863 5863 5862 5861 5861 5860 5859 5859 5858 5858 5857 5856 5855 5854 5853 5851 5850 5849 5848 5847 5846 5846 5845 5845 5844 5843 5842 5841 5841 5841 5840 5839 5839 5838 5838 5837 5837 5836 5836 5835 5835 5835 5834 5834 5833 5833 5833 5833 5832 5832 5832 5831 5831 5831 5831 5830 5830 5830 5829 5829 5829 5829 5829 5829 5829 5828 5828 5828
5872 5871 5871 5871 5870 5870 5869 5869 5868 5868 5867 5866 5866 5865 5865 5864 5864 5863 5862 5861 5861 5860 5860 5859 5859 5858 5858 5857 5856 5855 5854 5853 5852 5850 5849 5848 5847 5847 5846 5845 5845 5844 5843 5842 5842 5841 5841 5840 5839 5839 5838 5838 5837 5837 5836 5836 5835 5835 5834 5834 5833 5833 5833 5833 5833 5832 5832 5832 5831 5831 5831 5830 5830 5829 5829 5829 5829 5829 5829 5829 5828 5828 5828 5828 5828
5870 5870 5870 5870 5869 5869 5868 5868 5867 5867 5866 5866 5865 5865 5864 5864 5863 5863 5862 5861 5860 5860 5859 5859 5858 5858 5857 5857 5856 5855 5854 5853 5852 5850 5849 5848 5847 5847 5846 5845 5845 5844 5843 5843 5842 5841 5841 5840 5839 5839 5838 5838 5837 5837 5837 5836 5836 5835 5835 5834 5833 5833 5832 5832 5832 5832 5832 5831 5831 5831 5830 5830 5829 5829 5829 5828 5828 5828 5828 5828 5828 5828 5827 5827 5827
5869 5869 5869 5868 5868 5867 5867 5866 5866 5866 5865 5865 5865 5864 5864 5863 5863 5862 5861 5861 5860 5859 5859 5859 5858 5858 5857 5856 5856 5855 5854 5853 5852 5850 5849 5848 5847 5847 5846 5845 5845 5844 5843 5843 5842 5842 5841 5841 5840 5839 5838 5838 5837 5837 5837 5836 5836 5835 5835 5834 5833 5833 5832 5832 5832 5831 5831 5831 5831 5831 5830 5830 5829 5829 5829 5828 5828 5828 5827 5827 5827 5827 5827 5827 5826
5868 5868 5867 5867 5867 5866 5866 5865 5865 5865 5864 5864 5864 5863 5863 5862 5862 5861 5861 5860 5859 5859 5859 5858 5858 5857 5857 5856 5855 5854 5853 5852 5851 5850 5849 5848 5847 5847 5846 5845 5844 5844 5843 5842 5842 5841 5841 5841 5840 5839 5839 5838 5837 5837 5837 5836 5836 5835 5835 5834 5834 5833 5832 5832 5831 5831 5831 5830 5830 5830 5830 5830 5829 5829 5829 5828 5828 5827 5827 5827 5826 5826 5826 5826 5826
5867 5866 5866 5866 5866 5865 5865 5864 5864 5864 5864 5864 5863 5863 5862 5862 5861 5860 5860 5859 5859 5858 5858 5858 5857 5857 5857 5856 5855 5854 5853 5852 5851 5850 5849 5848 5847 5847 5846 5845 5844 5843 5843 5842 5842 5841 5841 5841 5840 5839 5839 5838 5838 5837 5836 5836 5836 5835 5835 5834 5834 5833 5832 5832 5831 5830 5830 5830 5830 5830 5830 5829 5829 5829 5829 5828 5828 5827 5827 5826 5826 5825 5825 5825 5825
5865 5864 5864 5864 5864 5864 5863 5863 5863 5863 5863 5863 5862 5862 5861 5861 5860 5860 5859 5859 5858 5858 5857 5857 5857 5856 5856 5856 5855 5854 5853 5851 5851 5850 5849 5848 5847 5846 5845 5845 5844 5843 5842 5842 5841 5841 5840 5840 5840 5839 5839 5838 5838 5837 5836 5836 5836 5835 5835 5834 5834 5833 5832 5831 5831 5830 5829 5829 5829 5829 5829 5829 5829 5829 5828 5828 5828 5827 5827 5826 5826 5825 5825 5824 5824
5863 5862 5862 5863 5862 5862 5862 5862 5862 5862 5862 5862 5861 5861 5860 5860 5860 5859 5859 5858 5858 5857 5857 5856 5856 5856 5856 5855 5855 5854 5852 5851 5850 5849 5849 5848 5847 5846 5845 5844 5844 5843 5842 5841 5841 5840 5840 5840 5839 5839 5838 5838 5837 5837 5836 5836 5835 5835 5834 5834 5833 5833 5832 5831 5830 5830 5829 5829 5829 5829 5828 5828 5828 5828 5828 5828 5827 5827 5826 5826 5825 5825 5824 5824 5823
5860 5860 5860 5860 5860 5860 5860 5861 5861 5861 5861 5860 5860 5860 5860 5859 5859 5859 5858 5858 5857 5857 5856 5856 5855 5855 5855 5855 5854 5853 5852 5851 5850 5849 5848 5848 5847 5846 5845 5844 5843 5842 5841 5841 5840 5840 5839 5839 5839 5839 5838 5838 5837 5836 5836 5835 5835 5834 5834 5833 5833 5832 5832 5831 5830 5830 5829 5829 5828 5828 5828 5828 5828 5828 5828 5827 5827 5827 5826 5826 5825 5825 5824 5824 5823
5858 5858 5858 5858 5858 5859 5859 5860 5860 5860 5860 5859 5859 5859 5859 5859 5858 5858 5857 5857 5857 5856 5856 5855 5855 5854 5854 5854 5853 5853 5852 5851 5850 5849 5848 5847 5847 5846 5845 5843 5842 5841 5840 5839 5839 5839 5839 5838 5838 5838 5838 5837 5837 5836 5836 5835 5834 5833 5833 5833 5832 5832 5831 5831 5830 5829 5829 5829 5828 5828 5827 5827 5827 5827 5827 5827 5827 5826 5826 5825 5825 5824 5824 5823 5823
5856 5856 5856 5856 5856 5857 5858 5859 5859 5859 5858 5858 5858 5858 5858 5858 5858 5858 5857 5857 5856 5856 5855 5855 5854 5854 5854 5853 5853 5852 5852 5851 5850 5849 5848 5847 5846 5845 5844 5843 5842 5841 5839 5838 5838 5838 5838 5838 5837 5837 5837 5837 5836 5836 5835 5835 5834 5833 5832 5832 5832 5831 5831 5830 5830 5829 5829 5829 5828 5828 5827 5827 5827 5827 5826 5826 5826 5826 5825 5824 5824 5823 5823 5823 5822
5854 5854 5854 5854 5854 5856 5857 5857 5857 5857 5857 5858 5857 5858 5858 5858 5857 5857 5857 5856 5856 5855 5854 5854 5853 5853 5853 5853 5852 5851 5851 5850 5849 5848 5847 5846 5846 5845 5844 5843 5841 5840 5839 5838 5837 5837 5837 5837 5837 5836 5836 5836 5836 5835 5835 5834 5834 5833 5832 5831 5831 5831 5830 5830 5829 5829 5828 5828 5828 5827 5827 5827 5826 5826 5826 5825 5825 5825 5824 5824 5823 5823 5822 5822 5821
5851 5851 5852 5852 5853 5854 5855 5855 5856 5856 5856 5856 5857 5857 5857 5857 5857 5856 5856 5855 5855 5854 5854 5853 5853 5852 5852 5852 5851 5850 5850 5849 5849 5848 5847 5846 5845 5844 5843 5842 5841 5840 5839 5838 5837 5836 5836 5835 5835 5835 5835 5835 5835 5835 5834 5833 5833 5832 5832 5831 5831 5830 5830 5830 5829 5828 5828 5828 5827 5827 5827 5826 5826 5825 5825 5825 5824 5824 5824 5823 5823 5822 5821 5821 5820
5849 5849 5850 5851 5852 5853 5853 5854 5855 5855 5855 5856 5856 5856 5856 5856 5856 5855 5855 5855 5854 5853 5853 5852 5852 5851 5851 5851 5850 5849 5849 5848 5848 5847 5846 5845 5845 5844 5843 5842 5841 5840 5838 5837 5837 5836 5835 5834 5834 5834 5834 5835 5835 5834 5834 5833 5832 5831 5831 5831 5830 5829 5829 5829 5828 5828 5828 5827 5827 5826 5826 5825 5825 5824 5824 5824 5823 5823 5823 5822 5822 5821 5821 5820 5819
5847 5848 5849 5850 5851 5851 5852 5853 5854 5854 5854 5855 5855 5855 5855 5855 5855 5855 5854 5854 5853 5852 5852 5851 5851 5850 5850 5849 5849 5848 5848 5847 5847 5846 5845 5845 5844 5843 5843 5842 5841 5840 5838 5837 5836 5835 5834 5834 5833 5833 5833 5834 5834 5834 5833 5832 5831 5830 5830 5830 5830 5829 5828 5828 5827 5827 5827 5826 5826 5825 5825 5824 5824 5823 5823 5823 5822 5822 5821 5821 5821 5820 5820 5819 5819
5845 5846 5847 5848 5849 5850 5851 5852 5852 5852 5853 5854 5854 5854 5854 5854 5854 5854 5853 5853 5852 5852 5851 5850 5850 5849 5849 5848 5848 5847 5846 5846 5845 5845 5845 5844 5844 5843 5842 5841 5840 5839 5838 5837 5836 5835 5834 5833 5833 5832 5832 5832 5833 5833 5833 5832 5831 5830 5829 5828 5828 5828 5828 5827 5826 5826 5826 5825 5825 5824 5823 5823 5823 5822 5822 5821 5821 5821 5820 5820 5820 5819 5819 5819 5818
5844 5845 5846 5847 5847 5848 5849 5850 5851 5851 5852 5852 5852 5853 5853 5853 5853 5853 5852 5852 5851 5851 5850 5849 5849 5848 5848 5847 5847 5846 5845 5845 5844 5844 5844 5843 5843 5842 5842 5841 5840 5839 5838 5837 5836 5835 5834 5833 5832 5832 5832 5832 5832 5832 5832 5832 5831 5830 5829 5827 5827 5827 5827 5826 5825 5825 5824 5824 5824 5823 5822 5822 5821 5821 5820 5820 5820 5819 5819 5819 5818 5818 5818 5818 5817
5843 5843 5844 5845 5846 5847 5848 5849 5849 5850 5850 5851 5851 5851 5851 5852 5852 5852 5851 5851 5850 5850 5849 5848 5848 5847 5847 5846 5846 5845 5844 5844 5843 5843 5842 5842 5842 5842 5841 5841 5840 5839 5838 5837 5836 5835 5834 5833 5832 5831 5831 5831 5831 5831 5831 5831 5830 5830 5828 5827 5826 5825 5825 5825 5825 5824 5823 5823 5823 5822 5821 5821 5820 5819 5819 5819 5818 5818 5818 5817 5817 5817 5817 5817 5816
5841 5841 5842 5843 5844 5845 5846 5847 5848 5848 5849 5849 5849 5849 5850 5850 5850 5850 5850 5850 5849 5849 5848 5847 5847 5846 5846 5845 5844 5844 5843 5843 5842 5842 5841 5841 5841 5841 5841 5840 5840 5839 5838 5837 5836 5835 5834 5833 5832 5831 5830 5830 5829 5829 5829 5829 5829 5829 5828 5827 5825 5824 5824 5823 5823 5823 5822 5821 5821 5820 5820 5819 5818 5818 5817 5817 5817 5816 5816 5816 5816 5815 5816 5816 5815
5839 5839 5840 5841 5843 5844 5845 5846 5846 5847 5847 5847 5848 5848 5848 5848 5849 5849 5849 5848 5848 5848 5847 5846 5846 5845 5845 5844 5843 5843 5842 5842 5841 5841 5841 5840 5840 5840 5840 5840 5839 5839 5838 5837 5836 5835 5834 5833 5832 5831 5830 5829 5828 5828 5827 5826 5826 5826 5826 5826 5825 5824 5823 5822 5822 5821 5821 5820 5819 5818 5818 5817 5817 5816 5816 5815 5815 5815 5815 5814 5814 5814 5814 5814 5814
5837 5838 5839 5840 5842 5843 5844 5844 5845 5845 5846 5846 5846 5847 5847 5847 5847 5847 5847 5847 5847 5847 5846 5846 5845 5844 5844 5843 5842 5841 5841 5840 5840 5840 5840 5840 5840 5840 5839 5839 5839 5838 5838 5837 5836 5835 5834 5833 5832 5831 5830 5829 5828 5827 5826 5825 5825 5824 5824 5824 5824 5823 5822 5821 5820 5820 5819 5818 5817 5816 5815 5815 5815 5814 5814 5814 5814 5813 5813 5813 5812 5812 5812 5812 5813
5836 5837 5838 5839 5841 5842 5842 5843 5843 5844 5844 5845 5845 5845 5845 5845 5846 5845 5846 5846 5846 5845 5845 5844 5844 5843 5843 5842 5841 5841 5840 5839 5839 5839 5839 5839 5839 5839 5839 5838 5838 5837 5837 5837 5835 5835 5834 5834 5833 5831 5830 5829 5828 5827 5826 5825 5824 5823 5822 5822 5822 5822 5821 5820 5819 5818 5818 5816 5815 5814 5813 5812 5813 5812 5812 5812 5812 5812 5812 5811 5811 5811 5811 5811 5811
5835 5836 5837 5838 5839 5840 5841 5841 5842 5842 5843 5843 5843 5843 5844 5844 5844 5844 5844 5845 5844 5844 5843 5843 5842 5842 5841 5841 5840 5840 5839 5839 5838 5838 5838 5838 5838 5838 5838 5838 5837 5836 5836 5836 5835 5835 5834 5834 5833 5832 5831 5830 5829 5827 5826 5825 5824 5823 5822 5821 5820 5820 5820 5819 5817 5816 5815 5814 5813 5812 5812 5810 5810 5810 5810 5809 5810 5810 5810 5810 5809 5809 5809 5809 5809
5834 5835 5836 5837 5838 5839 5840 5840 5840 5841 5841 5841 5841 5842 5842 5842 5842 5843 5843 5843 5843 5842 5841 5841 5841 5840 5840 5839 5839 5839 5839 5838 5837 5837 5837 5837 5837 5837 5837 5837 5836 5835 5835 5835 5835 5835 5834 5833 5833 5832 5831 5830 5829 5827 5826 5825 5824 5823 5821 5820 5819 5819 5818 5818 5816 5815 5813 5812 5811 5810 5809 5808 5808 5807 5807 5807 5808 5808 5808 5808 5808 5807 5807 5807 5807
5833 5834 5835 5836 5837 5837 5838 5838 5839 5839 5839 5839 5839 5840 5840 5840 5841 5841 5841 5841 5840 5839 5840 5840 5839 5839 5838 5838 5837 5837 5837 5837 5837 5836 5836 5836 5836 5836 5836 5836 5835 5835 5835 5834 5834 5834 5833 5833 5832 5831 5831 5830 5829 5827 5826 5825 5823 5822 5821 5820 5819 5818 5817 5816 5815 5814 5812 5810 5809 5808 5806 5806 5806 5805 5805 5805 5806 5806 5806 5806 5806 5806 5806 5806 5805
5832 5833 5833 5834 5835 5836 5836 5837 5837 5837 5837 5837 5837 5838 5838 5838 5838 5838 5839 5839 5839 5837 5837 5837 5837 5837 5837 5837 5836 5836 5836 5836 5836 5835 5835 5835 5835 5835 5835 5835 5835 5834 5834 5833 5833 5833 5833 5832 5832 5831 5830 5829 5828 5827 5826 5824 5823 5822 5821 5819 5818 5816 5815 5815 5814 5813 5811 5809 5807 5807 5805 5803 5802 5803 5802 5802 5803 5804 5804 5805 5805 5804 5804 5804 5804
5829 5830 5831 5832 5833 5834 5834 5835 5835 5835 5835 5836 5836 5836 5836 5837 5836 5836 5837 5838 5837 5836 5835 5835 5835 5835 5835 5835 5835 5835 5835 5835 5835 5834 5834 5834 5834 5834 5834 5834 5833 5833 5832 5832 5832 5832 5832 5831 5831 5830 5829 5828 5827 5826 5825 5823 5822 5821 5820 5818 5817 5815 5814 5813 5812 5810 5809 5808 5806 5805 5804 5802 5800 5800 5800 5800 5801 5802 5802 5802 5802 5802 5802 5802 5802
5825 5826 5828 5830 5831 5831 5832 5832 5832 5833 5833 5833 5833 5834 5834 5835 5834 5835 5835 5836 5836 5836 5836 5835 5835 5834 5834 5834 5834 5834 5834 5834 5834 5834 5834 5834 5833 5833 5833 5833 5832 5832 5831 5831 5831 5830 5830 5830 5829 5828 5828 5827 5826 5825 5824 5822 5821 5820 5818 5817 5816 5814 5813 5811 5810 5809 5808 5807 5805 5803 5802 5801 5799 5798 5798 5799 5799 5800 5800 5801 5801 5800 5800 5800 5800
5821 5823 5825 5826 5827 5827 5828 5829 5829 5829 5829 5829 5830 5831 5831 5832 5832 5833 5833 5834 5835 5835 5835 5835 5834 5834 5833 5833 5833 5833 5833 5833 5833 5833 5833 5833 5833 5832 5832 5832 5831 5831 5830 5830 5829 5829 5828 5828 5827 5826 5826 5825 5824 5823 5822 5821 5820 5818 5817 5816 5815 5813 5812 5810 5809 5807 5806 5805 5804 5802 5801 5800 5799 5797 5797 5797 5797 5798 5798 5799 5799 5799 5798 5799 5799
5817 5819 5821 5821 5822 5823 5824 5825 5826 5826 5826 5827 5828 5828 5828 5829 5830 5830 5831 5832 5833 5833 5833 5833 5832 5832 5832 5832 5832 5832 5832 5832 5832 5832 5832 5832 5832 5832 5831 5830 5830 5829 5829 5828 5828 5827 5826 5826 5825 5824 5823 5823 5822 5821 5820 5819 5818 5817 5816 5815 5814 5812 5811 5809 5808 5806 5805 5804 5803 5801 5800 5799 5798 5797 5796 5796 5796 5796 5797 5796 5796 5797 5797 5796 5797
5813 5814 5816 5817 5818 5818 5820 5822 5824 5824 5825 5826 5827 5826 5826 5826 5827 5828 5829 5830 5830 5830 5830 5830 5830 5831 5831 5831 5831 5831 5831 5831 5831 5831 5831 5831 5831 5830 5830 5829 5829 5828 5828 5827 5826 5826 5824 5824 5823 5822 5821 5821 5820 5819 5818 5817 5816 5815 5814 5813 5812 5811 5809 5808 5807 5805 5804 5803 5801 5800 5799 5798 5797 5796 5795 5795 5795 5794 5795 5795 5794 5794 5794 5794 5794
5810 5811 5812 5813 5815 5816 5819 5821 5823 5823 5823 5824 5825 5825 5825 5825 5825 5826 5827 5827 5826 5826 5827 5828 5828 5829 5829 5829 5829 5829 5829 5829 5829 5829 5829 5829 5829 5829 5828 5828 5827 5827 5826 5825 5825 5824 5823 5822 5821 5820 5819 5819 5818 5817 5816 5815 5814 5813 5812 5811 5810 5809 5807 5806 5805 5804 5803 5801 5800 5799 5797 5796 5795 5794 5794 5793 5793 5792 5792 5792 5792 5791 5791 5791 5791
5811 5810 5810 5811 5814 5817 5818 5819 5820 5821 5820 5821 5822 5822 5824 5825 5825 5825 5824 5823 5823 5823 5825 5826 5826 5827 5827 5828 5828 5828 5828 5828 5828 5828 5828 5828 5828 5827 5827 5826 5826 5825 5825 5824 5823 5822 5822 5821 5820 5819 5818 5817 5816 5815 5814 5813 5812 5811 5810 5809 5808 5807 5805 5804 5803 5802 5801 5800 5799 5797 5796 5794 5793 5792 5792 5791 5790 5789 5789 5789 5789 5788 5788 5789 5788
5811 5812 5813 5814 5816 5817 5815 5815 5817 5819 5817 5818 5819 5820 5822 5823 5825 5824 5822 5821 5821 5822 5823 5824 5825 5826 5826 5826 5826 5826 5826 5826 5826 5826 5826 5826 5826 5826 5825 5825 5824 5824 5823 5822 5822 5821 5820 5819 5818 5817 5816 5815 5814 5813 5812 5811 5810 5809 5808 5806 5805 5804 5803 5802 5801 5800 5799 5798 5797 5795 5794 5792 5791 5790 5789 5789 5788 5787 5786 5785 5785 5785 5786 5786 5786
5810 5811 5813 5814 5816 5815 5814 5813 5816 5817 5815 5815 5816 5818 5821 5822 5823 5822 5819 5819 5820 5821 5822 5823 5824 5824 5824 5825 5825 5824 5824 5824 5824 5825 5825 5824 5824 5824 5824 5824 5823 5822 5821 5820 5820 5819 5818 5818 5817 5816 5814 5813 5812 5812 5810 5809 5807 5806 5805 5804 5803 5801 5800 5799 5798 5797 5797 5796 5795 5793 5791 5791 5790 5789 5787 5786 5784 5784 5783 5782 5782 5782 5783 5782 5782
5809 5808 5809 5810 5812 5812 5813 5812 5813 5814 5812 5813 5815 5817 5821 5821 5819 5817 5817 5818 5818 5819 5821 5822 5822 5823 5823 5823 5823 5823 5823 5823 5823 5823 5823 5823 5823 5822 5822 5822 5821 5820 5819 5819 5818 5818 5817 5816 5815 5814 5813 5811 5810 5810 5809 5807 5805 5804 5803 5802 5801 5799 5797 5797 5796 5795 5794 5793 5791 5790 5789 5789 5788 5786 5785 5783 5781 5781 5781 5780 5779 5779 5779 5779 5779
5807 5806 5806 5807 5808 5809 5811 5811 5810 5811 5811 5812 5814 5817 5820 5818 5815 5814 5816 5816 5817 5818 5819 5820 5821 5821 5822 5822 5822 5822 5822 5822 5822 5822 5822 5821 5821 5821 5820 5820 5819 5819 5818 5817 5816 5816 5815 5814 5813 5812 5811 5810 5808 5807 5807 5805 5804 5802 5801 5800 5798 5797 5795 5794 5793 5792 5791 5789 5789 5788 5787 5786 5785 5783 5782 5781 5779 5778 5778 5778 5777 5775 5775 5775 5776
5805 5804 5804 5805 5806 5807 5809 5808 5808 5809 5809 5811 5814 5816 5816 5814 5813 5813 5814 5815 5816 5817 5818 5819 5819 5820 5820 5821 5821 5821 5820 5820 5821 5820 5820 5820 5819 5819 5819 5818 5817 5817 5817 5816 5815 5814 5813 5812 5811 5810 5809 5808 5806 5805 5804 5803 5802 5801 5799 5798 5796 5795 5794 5792 5791 5790 5789 5787 5786 5785 5784 5783 5782 5781 5780 5778 5776 5775 5775 5775 5774 5773 5772 5772 5772
5803 5803 5803 5804 5806 5806 5807 5806 5806 5807 5809 5811 5813 5814 5813 5812 5812 5813 5813 5814 5815 5816 5816 5817 5818 5818 5819 5819 5819 5819 5819 5819 5819 5819 5819 5818 5818 5818 5817 5817 5816 5815 5815 5814 5813 5812 5811 5810 5809 5808 5807 5806 5804 5803 5802 5801 5800 5799 5797 5796 5794 5792 5791 5790 5789 5788 5787 5785 5783 5782 5781 5779 5778 5777 5777 5775 5774 5773 5772 5772 5771 5771 5770 5769 5768
5800 5801 5802 5803 5804 5805 5805 5805 5805 5807 5808 5810 5811 5811 5810 5810 5810 5811 5812 5813 5814 5814 5815 5816 5816 5817 5817 5818 5818 5818 5818 5818 5818 5818 5817 5817 5817 5816 5816 5815 5814 5813 5813 5812 5811 5810 5809 5808 5807 5806 5805 5804 5802 5801 5800 5798 5797 5796 5795 5793 5792 5790 5789 5788 5787 5785 5784 5783 5781 5779 5778 5777 5775 5774 5774 5773 5771 5770 5769 5768 5768 5767 5767 5765 5764
5799 5800 5801 5801 5801 5802 5803 5804 5805 5806 5807 5808 5808 5807 5808 5809 5809 5810 5811 5812 5813 5813 5814 5814 5815 5815 5816 5816 5816 5816 5817 5817 5816 5816 5816 5816 5815 5815 5814 5813 5813 5812 5811 5810 5809 5808 5807 5806 5805 5804 5802 5801 5800 5798 5797 5795 5794 5793 5792 5791 5789 5788 5787 5785 5784 5783 5781 5780 5779 5777 5775 5774 5773 5772 5771 5770 5769 5767 5765 5764 5764 5763 5763 5761 5760
5798 5799 5799 5799 5799 5800 5802 5803 5804 5805 5805 5805 5805 5806 5807 5808 5809 5810 5810 5811 5811 5812 5813 5813 5814 5814 5814 5815 5815 5815 5815 5815 5815 5814 5814 5814 5813 5813 5812 5811 5811 5810 5809 5808 5807 5806 5805 5804 5803 5801 5800 5799 5797 5796 5794 5793 5791 5790 5789 5788 5787 5785 5784 5783 5781 5780 5779 5778 5777 5775 5773 5772 5771 5769 5768 5767 5766 5765 5763 5762 5761 5759 5758 5757 5756
5796 5797 5797 5798 5799 5800 5801 5802 5802 5803 5803 5803 5805 5806 5806 5807 5808 5809 5809 5810 5810 5811 5812 5812 5813 5813 5813 5813 5814 5814 5814 5813 5813 5813 5813 5812 5812 5811 5810 5810 5809 5808 5807 5806 5805 5804 5803 5802 5801 5799 5798 5796 5795 5794 5792 5791 5789 5788 5786 5785 5784 5782 5781 5780 5779 5777 5776 5775 5774 5772 5770 5769 5768 5766 5764 5764 5763 5762 5761 5760 5758 5756 5755 5754 5753